Location: Greenwich
(51.4790°N, 0.0090°E)
Time: 17:28:37
(UTC+01:00)

Tiros 1 despin weight - All Passes

Search period start: 23 June 2025 00:00
Search period end: 03 July 2025 00:00
Orbit: 563 x 601 km, 48.2° (Epoch: 22 June)

Date Brightness Start Highest point End Pass type
(mag) Time Alt. Az. Time Alt. Az. Time Alt. Az.
23 Jun - 14:31:14 10° SSW 14:34:49 27° SSE 14:38:24 10° E daylight
23 Jun - 16:10:56 10° WSW 16:15:03 52° S 16:19:11 10° E daylight
23 Jun - 17:51:24 10° W 17:55:30 48° SSW 17:59:35 10° ESE daylight
23 Jun - 19:32:22 10° W 19:35:38 22° SSW 19:38:56 10° SSE daylight
24 Jun - 12:57:56 10° SSE 12:59:29 12° SE 13:01:02 10° ESE daylight
24 Jun - 14:35:29 10° SW 14:39:20 34° SSE 14:43:11 10° E daylight
24 Jun - 16:15:32 10° WSW 16:19:41 55° S 16:23:50 10° E daylight
24 Jun - 17:56:06 10° W 18:00:05 41° SSW 18:04:05 10° SE daylight
24 Jun - 19:37:28 10° WSW 19:40:05 16° SW 19:42:42 10° S daylight
25 Jun - 13:01:07 10° S 13:03:53 17° SE 13:06:38 10° ESE daylight
25 Jun - 14:39:53 10° SW 14:43:54 42° SSE 14:47:55 10° E daylight
25 Jun - 16:20:10 10° W 16:24:19 55° S 16:28:28 10° ESE daylight
25 Jun - 18:00:50 10° W 18:04:38 33° SSW 18:08:27 10° SE daylight
25 Jun - 19:43:16 10° WSW 19:44:28 11° SW 19:45:39 10° SSW daylight
26 Jun - 13:04:57 10° SSW 13:08:19 23° SSE 13:11:41 10° E daylight
26 Jun - 14:44:23 10° WSW 14:48:30 49° SSE 14:52:35 10° E daylight
26 Jun - 16:24:48 10° W 16:28:55 51° S 16:33:02 10° ESE daylight
26 Jun - 18:05:37 10° W 18:09:09 26° SSW 18:12:41 10° SSE daylight
27 Jun - 13:09:05 10° SW 13:12:49 30° SSE 13:16:31 10° E daylight
27 Jun - 14:48:57 10° WSW 14:53:05 54° S 14:57:14 10° E daylight
27 Jun - 16:29:28 10° W 16:33:31 45° SSW 16:37:34 10° ESE daylight
27 Jun - 18:10:33 10° W 18:13:37 19° SSW 18:16:40 10° SSE daylight
28 Jun - 11:35:14 10° S 11:37:25 14° SE 11:39:35 10° ESE daylight
28 Jun - 13:13:23 10° SW 13:17:20 37° SSE 13:21:16 10° E daylight
28 Jun - 14:53:32 10° WSW 14:57:42 56° S 15:01:52 10° ESE daylight
28 Jun - 16:34:09 10° W 16:38:05 38° SSW 16:42:00 10° SE daylight
28 Jun - 18:15:48 10° WSW 18:18:01 14° SW 18:20:13 10° S daylight
29 Jun - 11:38:45 10° SSW 11:41:48 19° SSE 11:44:51 10° E daylight
29 Jun - 13:17:49 10° WSW 13:21:53 45° SSE 13:25:57 10° E daylight
29 Jun - 14:58:09 10° W 15:02:19 54° S 15:06:27 10° ESE daylight
29 Jun - 16:38:53 10° W 16:42:37 30° SSW 16:46:19 10° SE daylight
30 Jun - 11:42:42 10° SSW 11:46:15 25° SSE 11:49:46 10° E daylight
30 Jun - 13:22:19 10° WSW 13:26:28 51° S 13:30:35 10° E daylight
30 Jun - 15:02:47 10° W 15:06:54 49° S 15:11:00 10° ESE daylight
30 Jun - 16:43:42 10° W 16:47:04 23° SSW 16:50:26 10° SSE daylight
01 Jul - 10:09:46 10° SSE 10:10:54 11° SE 10:12:02 10° ESE daylight
01 Jul - 11:46:53 10° SW 11:50:44 33° SSE 11:54:33 10° E daylight
01 Jul - 13:26:52 10° WSW 13:31:03 55° S 13:35:12 10° E daylight
01 Jul - 15:07:26 10° W 15:11:28 42° SSW 15:15:29 10° SE daylight
01 Jul - 16:48:42 10° WSW 16:51:29 17° SW 16:54:17 10° S daylight
02 Jul - 10:12:38 10° S 10:15:15 16° SE 10:17:52 10° ESE daylight
02 Jul - 11:51:13 10° SW 11:55:15 40° SSE 11:59:15 10° E daylight
02 Jul - 13:31:28 10° W 13:35:39 55° S 13:39:48 10° ESE daylight
02 Jul - 15:12:07 10° W 15:16:00 35° SSW 15:19:51 10° SE daylight
02 Jul - 16:54:11 10° WSW 16:55:51 12° SW 16:57:31 10° SSW daylight
